Year,Month,Day,Hour,Minute,Value (Times are PST for temperature in C)
2009,06,30,00,00,11.20
2009,06,30,00,01,11.20
2009,06,30,00,02,11.20
2009,06,30,00,03,11.20
2009,06,30,00,04,11.10
2009,06,30,00,05,11.10
2009,06,30,00,06,11.10
2009,06,30,00,07,11.10
2009,06,30,00,08,11.00
2009,06,30,00,09,11.00
2009,06,30,00,10,10.90
2009,06,30,00,11,10.90
2009,06,30,00,12,10.80
2009,06,30,00,13,10.80
2009,06,30,00,14,10.70
2009,06,30,00,15,10.70
2009,06,30,00,16,10.70
2009,06,30,00,17,10.60
2009,06,30,00,18,10.60
2009,06,30,00,19,10.60
2009,06,30,00,20,10.50
2009,06,30,00,21,10.50
2009,06,30,00,22,10.40
2009,06,30,00,23,10.40
2009,06,30,00,24,10.40
2009,06,30,00,25,10.40
2009,06,30,00,26,10.40
2009,06,30,00,27,10.30
2009,06,30,00,28,10.30
2009,06,30,00,29,10.30
2009,06,30,00,30,10.30
2009,06,30,00,31,10.30
2009,06,30,00,32,10.30
2009,06,30,00,33,10.30
2009,06,30,00,34,10.30
2009,06,30,00,35,10.30
2009,06,30,00,36,10.40
2009,06,30,00,37,10.40
2009,06,30,00,38,10.30
2009,06,30,00,39,10.30
2009,06,30,00,40,10.30
2009,06,30,00,41,10.30
2009,06,30,00,42,10.30
2009,06,30,00,43,10.30
2009,06,30,00,44,10.30
2009,06,30,00,45,10.30
2009,06,30,00,46,10.30
2009,06,30,00,47,10.30
2009,06,30,00,48,10.20
2009,06,30,00,49,10.20
2009,06,30,00,50,10.20
2009,06,30,00,51,10.20
2009,06,30,00,52,10.20
2009,06,30,00,53,10.20
2009,06,30,00,54,10.20
2009,06,30,00,55,10.20
2009,06,30,00,56,10.20
2009,06,30,00,57,10.20
2009,06,30,00,58,10.10
2009,06,30,00,59,10.10
2009,06,30,01,00,10.10
2009,06,30,01,01,10.00
2009,06,30,01,02,10.00
2009,06,30,01,03,9.90
2009,06,30,01,04,9.90
2009,06,30,01,05,9.80
2009,06,30,01,06,9.80
2009,06,30,01,07,9.80
2009,06,30,01,08,9.70
2009,06,30,01,09,9.70
2009,06,30,01,10,9.70
2009,06,30,01,11,9.60
2009,06,30,01,12,9.60
2009,06,30,01,13,9.60
2009,06,30,01,14,9.60
2009,06,30,01,15,9.50
2009,06,30,01,16,9.50
2009,06,30,01,17,9.50
2009,06,30,01,18,9.40
2009,06,30,01,19,9.40
2009,06,30,01,20,9.40
2009,06,30,01,21,9.40
2009,06,30,01,22,9.30
2009,06,30,01,23,9.30
2009,06,30,01,24,9.30
2009,06,30,01,25,9.30
2009,06,30,01,26,9.30
2009,06,30,01,27,9.30
2009,06,30,01,28,9.30
2009,06,30,01,29,9.30
2009,06,30,01,30,9.20
2009,06,30,01,31,9.20
2009,06,30,01,32,9.20
2009,06,30,01,33,9.20
2009,06,30,01,34,9.20
2009,06,30,01,35,9.20
2009,06,30,01,36,9.20
2009,06,30,01,37,9.20
2009,06,30,01,38,9.20
2009,06,30,01,39,9.20
2009,06,30,01,40,9.10
2009,06,30,01,41,9.10
2009,06,30,01,42,9.10
2009,06,30,01,43,9.10
2009,06,30,01,44,9.10
2009,06,30,01,45,9.00
2009,06,30,01,46,9.00
2009,06,30,01,47,9.00
2009,06,30,01,48,9.00
2009,06,30,01,49,9.00
2009,06,30,01,50,9.00
2009,06,30,01,51,8.90
2009,06,30,01,52,8.90
2009,06,30,01,53,8.90
2009,06,30,01,54,8.90
2009,06,30,01,55,8.90
2009,06,30,01,56,8.90
2009,06,30,01,57,9.00
2009,06,30,01,58,9.00
2009,06,30,01,59,9.00
2009,06,30,02,00,9.00
2009,06,30,02,01,9.00
2009,06,30,02,02,9.00
2009,06,30,02,03,9.00
2009,06,30,02,04,9.00
2009,06,30,02,05,9.00
2009,06,30,02,06,9.00
2009,06,30,02,07,8.90
2009,06,30,02,08,8.90
2009,06,30,02,09,8.90
2009,06,30,02,10,8.90
2009,06,30,02,11,8.90
2009,06,30,02,12,8.90
2009,06,30,02,13,8.90
2009,06,30,02,14,8.90
2009,06,30,02,15,8.90
2009,06,30,02,16,8.90
2009,06,30,02,17,8.90
2009,06,30,02,18,8.90
2009,06,30,02,19,8.80
2009,06,30,02,20,8.80
2009,06,30,02,21,8.80
2009,06,30,02,22,8.80
2009,06,30,02,23,8.80
2009,06,30,02,24,8.80
2009,06,30,02,25,8.80
2009,06,30,02,26,8.80
2009,06,30,02,27,8.80
2009,06,30,02,28,8.80
2009,06,30,02,29,8.80
2009,06,30,02,30,8.80
2009,06,30,02,31,8.80
2009,06,30,02,32,8.80
2009,06,30,02,33,8.70
2009,06,30,02,34,8.70
2009,06,30,02,35,8.70
2009,06,30,02,36,8.80
2009,06,30,02,37,8.80
2009,06,30,02,38,8.80
2009,06,30,02,39,8.80
2009,06,30,02,40,8.80
2009,06,30,02,41,8.80
2009,06,30,02,42,8.80
2009,06,30,02,43,8.80
2009,06,30,02,44,8.80
2009,06,30,02,45,8.90
2009,06,30,02,46,8.90
2009,06,30,02,47,8.90
2009,06,30,02,48,8.90
2009,06,30,02,49,8.90
2009,06,30,02,50,8.90
2009,06,30,02,51,8.90
2009,06,30,02,52,8.90
2009,06,30,02,53,8.90
2009,06,30,02,54,8.90
2009,06,30,02,55,8.90
2009,06,30,02,56,8.90
2009,06,30,02,57,8.80
2009,06,30,02,58,8.80
2009,06,30,02,59,8.80
2009,06,30,03,00,8.70
2009,06,30,03,01,8.70
2009,06,30,03,02,8.70
2009,06,30,03,03,8.60
2009,06,30,03,04,8.60
2009,06,30,03,05,8.60
2009,06,30,03,06,8.60
2009,06,30,03,07,8.50
2009,06,30,03,08,8.50
2009,06,30,03,09,8.40
2009,06,30,03,10,8.40
2009,06,30,03,11,8.40
2009,06,30,03,12,8.30
2009,06,30,03,13,8.30
2009,06,30,03,14,8.30
2009,06,30,03,15,8.30
2009,06,30,03,16,8.30
2009,06,30,03,17,8.30
2009,06,30,03,18,8.30
2009,06,30,03,19,8.30
2009,06,30,03,20,8.30
2009,06,30,03,21,8.30
2009,06,30,03,22,8.30
2009,06,30,03,23,8.30
2009,06,30,03,24,8.20
2009,06,30,03,25,8.20
2009,06,30,03,26,8.20
2009,06,30,03,27,8.10
2009,06,30,03,28,8.10
2009,06,30,03,29,8.10
2009,06,30,03,30,8.10
2009,06,30,03,31,8.00
2009,06,30,03,32,8.00
2009,06,30,03,33,7.90
2009,06,30,03,34,7.90
2009,06,30,03,35,7.90
2009,06,30,03,36,7.90
2009,06,30,03,37,7.90
2009,06,30,03,38,7.80
2009,06,30,03,39,7.80
2009,06,30,03,40,7.80
2009,06,30,03,41,7.80
2009,06,30,03,42,7.80
2009,06,30,03,43,7.80
2009,06,30,03,44,7.80
2009,06,30,03,45,7.70
2009,06,30,03,46,7.70
2009,06,30,03,47,7.70
2009,06,30,03,48,7.70
2009,06,30,03,49,7.70
2009,06,30,03,50,7.70
2009,06,30,03,51,7.70
2009,06,30,03,52,7.70
2009,06,30,03,53,7.70
2009,06,30,03,54,7.70
2009,06,30,03,55,7.70
2009,06,30,03,56,7.70
2009,06,30,03,57,7.70
2009,06,30,03,58,7.70
2009,06,30,03,59,7.70
2009,06,30,04,00,7.70
2009,06,30,04,01,7.70
2009,06,30,04,02,7.70
2009,06,30,04,03,7.70
2009,06,30,04,04,7.70
2009,06,30,04,05,7.70
2009,06,30,04,06,7.70
2009,06,30,04,07,7.60
2009,06,30,04,08,7.60
2009,06,30,04,09,7.60
2009,06,30,04,10,7.70
2009,06,30,04,11,7.60
2009,06,30,04,12,7.70
2009,06,30,04,13,7.70
2009,06,30,04,14,7.70
2009,06,30,04,15,7.60
2009,06,30,04,16,7.60
2009,06,30,04,17,7.60
2009,06,30,04,18,7.60
2009,06,30,04,19,7.60
2009,06,30,04,20,7.60
2009,06,30,04,21,7.60
2009,06,30,04,22,7.50
2009,06,30,04,23,7.50
2009,06,30,04,24,7.50
2009,06,30,04,25,7.50
2009,06,30,04,26,7.40
2009,06,30,04,27,7.50
2009,06,30,04,28,7.40
2009,06,30,04,29,7.50
2009,06,30,04,30,7.50
2009,06,30,04,31,7.50
2009,06,30,04,32,7.50
2009,06,30,04,33,7.60
2009,06,30,04,34,7.60
2009,06,30,04,35,7.60
2009,06,30,04,36,7.60
2009,06,30,04,37,7.60
2009,06,30,04,38,7.70
2009,06,30,04,39,7.70
2009,06,30,04,40,7.70
2009,06,30,04,41,7.70
2009,06,30,04,42,7.70
2009,06,30,04,43,7.60
2009,06,30,04,44,7.60
2009,06,30,04,45,7.50
2009,06,30,04,46,7.40
2009,06,30,04,47,7.40
2009,06,30,04,48,7.30
2009,06,30,04,49,7.20
2009,06,30,04,50,7.20
2009,06,30,04,51,7.20
2009,06,30,04,52,7.20
2009,06,30,04,53,7.20
2009,06,30,04,54,7.20
2009,06,30,04,55,7.20
2009,06,30,04,56,7.20
2009,06,30,04,57,7.20
2009,06,30,04,58,7.20
2009,06,30,04,59,7.20
2009,06,30,05,00,7.20
2009,06,30,05,01,7.20
2009,06,30,05,02,7.30
2009,06,30,05,03,7.40
2009,06,30,05,04,7.40
2009,06,30,05,05,7.40
2009,06,30,05,06,7.50
2009,06,30,05,07,7.50
2009,06,30,05,08,7.50
2009,06,30,05,09,7.50
2009,06,30,05,10,7.60
2009,06,30,05,11,7.60
2009,06,30,05,12,7.60
2009,06,30,05,13,7.60
2009,06,30,05,14,7.60
2009,06,30,05,15,7.60
2009,06,30,05,16,7.60
2009,06,30,05,17,7.60
2009,06,30,05,18,7.50
2009,06,30,05,19,7.50
2009,06,30,05,20,7.40
2009,06,30,05,21,7.40
2009,06,30,05,22,7.30
2009,06,30,05,23,7.30
2009,06,30,05,24,7.20
2009,06,30,05,25,7.20
2009,06,30,05,26,7.20
2009,06,30,05,27,7.20
2009,06,30,05,28,7.10
2009,06,30,05,29,7.10
2009,06,30,05,30,7.10
2009,06,30,05,31,7.10
2009,06,30,05,32,7.10
2009,06,30,05,33,7.10
2009,06,30,05,34,7.10
2009,06,30,05,35,7.10
2009,06,30,05,36,7.10
2009,06,30,05,37,7.10
2009,06,30,05,38,7.10
2009,06,30,05,39,7.10
2009,06,30,05,40,7.10
2009,06,30,05,41,7.10
2009,06,30,05,42,7.10
2009,06,30,05,43,7.10
2009,06,30,05,44,7.10
2009,06,30,05,45,7.10
2009,06,30,05,46,7.10
2009,06,30,05,47,7.20
2009,06,30,05,48,7.20
2009,06,30,05,49,7.20
2009,06,30,05,50,7.20
2009,06,30,05,51,7.20
2009,06,30,05,52,7.30
2009,06,30,05,53,7.30
2009,06,30,05,54,7.40
2009,06,30,05,55,7.40
2009,06,30,05,56,7.40
2009,06,30,05,57,7.50
2009,06,30,05,58,7.60
2009,06,30,05,59,7.60
2009,06,30,06,00,7.60
2009,06,30,06,01,7.70
2009,06,30,06,02,7.70
2009,06,30,06,03,7.70
2009,06,30,06,04,7.80
2009,06,30,06,05,7.80
2009,06,30,06,06,7.90
2009,06,30,06,07,7.90
2009,06,30,06,08,8.00
2009,06,30,06,09,8.00
2009,06,30,06,10,8.00
2009,06,30,06,11,8.10
2009,06,30,06,12,8.10
2009,06,30,06,13,8.00
2009,06,30,06,14,8.00
2009,06,30,06,15,8.10
2009,06,30,06,16,8.10
2009,06,30,06,17,8.10
2009,06,30,06,18,8.10
2009,06,30,06,19,8.20
2009,06,30,06,20,8.20
2009,06,30,06,21,8.20
2009,06,30,06,22,8.30
2009,06,30,06,23,8.30
2009,06,30,06,24,8.40
2009,06,30,06,25,8.40
2009,06,30,06,26,8.50
2009,06,30,06,27,8.60
2009,06,30,06,28,8.70
2009,06,30,06,29,8.80
2009,06,30,06,30,8.80
2009,06,30,06,31,8.90
2009,06,30,06,32,8.90
2009,06,30,06,33,9.00
2009,06,30,06,34,9.10
2009,06,30,06,35,9.10
2009,06,30,06,36,9.20
2009,06,30,06,37,9.30
2009,06,30,06,38,9.40
2009,06,30,06,39,9.50
2009,06,30,06,40,9.50
2009,06,30,06,41,9.60
2009,06,30,06,42,9.60
2009,06,30,06,43,9.70
2009,06,30,06,44,9.80
2009,06,30,06,45,9.90
2009,06,30,06,46,10.00
2009,06,30,06,47,10.20
2009,06,30,06,48,10.20
2009,06,30,06,49,10.30
2009,06,30,06,50,10.40
2009,06,30,06,51,10.40
2009,06,30,06,52,10.50
2009,06,30,06,53,10.60
2009,06,30,06,54,10.70
2009,06,30,06,55,10.80
2009,06,30,06,56,10.80
2009,06,30,06,57,10.90
2009,06,30,06,58,10.90
2009,06,30,06,59,10.90
2009,06,30,07,00,11.00
2009,06,30,07,01,11.00
2009,06,30,07,02,11.10
2009,06,30,07,03,11.10
2009,06,30,07,04,11.20
2009,06,30,07,05,11.20
2009,06,30,07,06,11.30
2009,06,30,07,07,11.40
2009,06,30,07,08,11.50
2009,06,30,07,09,11.60
2009,06,30,07,10,11.80
2009,06,30,07,11,11.90
2009,06,30,07,12,12.00
2009,06,30,07,13,12.10
2009,06,30,07,14,12.20
2009,06,30,07,15,12.30
2009,06,30,07,16,12.40
2009,06,30,07,17,12.50
2009,06,30,07,18,12.60
2009,06,30,07,19,12.70
2009,06,30,07,20,12.80
2009,06,30,07,21,12.90
2009,06,30,07,22,13.00
2009,06,30,07,23,13.10
2009,06,30,07,24,13.20
2009,06,30,07,25,13.20
2009,06,30,07,26,13.30
2009,06,30,07,27,13.30
2009,06,30,07,28,13.40
2009,06,30,07,29,13.40
2009,06,30,07,30,13.40
2009,06,30,07,31,13.50
2009,06,30,07,32,13.50
2009,06,30,07,33,13.50
2009,06,30,07,34,13.60
2009,06,30,07,35,13.50
2009,06,30,07,36,13.50
2009,06,30,07,37,13.40
2009,06,30,07,38,13.40
2009,06,30,07,39,13.40
2009,06,30,07,40,13.50
2009,06,30,07,41,13.60
2009,06,30,07,42,13.70
2009,06,30,07,43,13.80
2009,06,30,07,44,13.90
2009,06,30,07,45,14.10
2009,06,30,07,46,14.20
2009,06,30,07,47,14.30
2009,06,30,07,48,14.40
2009,06,30,07,49,14.40
2009,06,30,07,50,14.40
2009,06,30,07,51,14.30
2009,06,30,07,52,14.30
2009,06,30,07,53,14.30
2009,06,30,07,54,14.20
2009,06,30,07,55,14.20
2009,06,30,07,56,14.20
2009,06,30,07,57,14.20
2009,06,30,07,58,14.20
2009,06,30,07,59,14.10
2009,06,30,08,00,14.10
2009,06,30,08,01,14.00
2009,06,30,08,02,14.00
2009,06,30,08,03,13.90
2009,06,30,08,04,13.90
2009,06,30,08,05,13.90
2009,06,30,08,06,13.90
2009,06,30,08,07,14.00
2009,06,30,08,08,14.10
2009,06,30,08,09,14.20
2009,06,30,08,10,14.30
2009,06,30,08,11,14.40
2009,06,30,08,12,14.50
2009,06,30,08,13,14.50
2009,06,30,08,14,14.60
2009,06,30,08,15,14.70
2009,06,30,08,16,14.80
2009,06,30,08,17,15.00
2009,06,30,08,18,15.00
2009,06,30,08,19,15.00
2009,06,30,08,20,15.10
2009,06,30,08,21,15.30
2009,06,30,08,22,15.30
2009,06,30,08,23,15.40
2009,06,30,08,24,15.50
2009,06,30,08,25,15.60
2009,06,30,08,26,15.70
2009,06,30,08,27,15.80
2009,06,30,08,28,15.80
2009,06,30,08,29,15.80
2009,06,30,08,30,15.80
2009,06,30,08,31,15.80
2009,06,30,08,32,15.80
2009,06,30,08,33,15.80
2009,06,30,08,34,15.70
2009,06,30,08,35,15.70
2009,06,30,08,36,15.60
2009,06,30,08,37,15.60
2009,06,30,08,38,15.60
2009,06,30,08,39,15.50
2009,06,30,08,40,15.40
2009,06,30,08,41,15.30
2009,06,30,08,42,15.10
2009,06,30,08,43,15.00
2009,06,30,08,44,15.00
2009,06,30,08,45,15.00
2009,06,30,08,46,14.90
2009,06,30,08,47,14.80
2009,06,30,08,48,14.80
2009,06,30,08,49,14.80
2009,06,30,08,50,14.70
2009,06,30,08,51,14.70
2009,06,30,08,52,14.80
2009,06,30,08,53,14.90
2009,06,30,08,54,15.00
2009,06,30,08,55,15.00
2009,06,30,08,56,15.20
2009,06,30,08,57,15.30
2009,06,30,08,58,15.50
2009,06,30,08,59,15.60
2009,06,30,09,00,15.70
2009,06,30,09,01,15.70
2009,06,30,09,02,15.80
2009,06,30,09,03,15.80
2009,06,30,09,04,15.80
2009,06,30,09,05,15.80
2009,06,30,09,06,15.80
2009,06,30,09,07,15.70
2009,06,30,09,08,15.60
2009,06,30,09,09,15.50
2009,06,30,09,10,15.50
2009,06,30,09,11,15.60
2009,06,30,09,12,15.70
2009,06,30,09,13,15.70
2009,06,30,09,14,15.70
2009,06,30,09,15,15.60
2009,06,30,09,16,15.60
2009,06,30,09,17,15.60
2009,06,30,09,18,15.60
2009,06,30,09,19,15.60
2009,06,30,09,20,15.50
2009,06,30,09,21,15.40
2009,06,30,09,22,15.30
2009,06,30,09,23,15.20
2009,06,30,09,24,15.20
2009,06,30,09,25,15.20
2009,06,30,09,26,15.30
2009,06,30,09,27,15.30
2009,06,30,09,28,15.40
2009,06,30,09,29,15.40
2009,06,30,09,30,15.50
2009,06,30,09,31,15.50
2009,06,30,09,32,15.70
2009,06,30,09,33,15.80
2009,06,30,09,34,16.00
2009,06,30,09,35,16.10
2009,06,30,09,36,16.20
2009,06,30,09,37,16.20
2009,06,30,09,38,16.20
2009,06,30,09,39,16.20
2009,06,30,09,40,16.20
2009,06,30,09,41,16.10
2009,06,30,09,42,16.10
2009,06,30,09,43,16.10
2009,06,30,09,44,16.10
2009,06,30,09,45,16.00
2009,06,30,09,46,15.90
2009,06,30,09,47,15.90
2009,06,30,09,48,15.90
2009,06,30,09,49,16.00
2009,06,30,09,50,16.00
2009,06,30,09,51,15.90
2009,06,30,09,52,15.90
2009,06,30,09,53,15.90
2009,06,30,09,54,15.80
2009,06,30,09,55,15.80
2009,06,30,09,56,15.80
2009,06,30,09,57,15.70
2009,06,30,09,58,15.80
2009,06,30,09,59,15.80
2009,06,30,10,00,15.80
2009,06,30,10,01,15.70
2009,06,30,10,02,15.70
2009,06,30,10,03,15.70
2009,06,30,10,04,15.70
2009,06,30,10,05,15.70
2009,06,30,10,06,15.70
2009,06,30,10,07,15.70
2009,06,30,10,08,15.80
2009,06,30,10,09,15.80
2009,06,30,10,10,15.80
2009,06,30,10,11,15.80
2009,06,30,10,12,15.80
2009,06,30,10,13,15.80
2009,06,30,10,14,15.80
2009,06,30,10,15,15.90
2009,06,30,10,16,15.90
2009,06,30,10,17,16.00
2009,06,30,10,18,16.10
2009,06,30,10,19,16.10
2009,06,30,10,20,16.20
2009,06,30,10,21,16.30
2009,06,30,10,22,16.30
2009,06,30,10,23,16.30
2009,06,30,10,24,16.30
2009,06,30,10,25,16.30
2009,06,30,10,26,16.30
2009,06,30,10,27,16.30
2009,06,30,10,28,16.30
2009,06,30,10,29,16.30
2009,06,30,10,30,16.30
2009,06,30,10,31,16.30
2009,06,30,10,32,16.30
2009,06,30,10,33,16.30
2009,06,30,10,34,16.40
2009,06,30,10,35,16.60
2009,06,30,10,36,17.00
2009,06,30,10,37,17.30
2009,06,30,10,38,17.40
2009,06,30,10,39,17.40
2009,06,30,10,40,17.30
2009,06,30,10,41,17.30
2009,06,30,10,42,17.20
2009,06,30,10,43,17.30
2009,06,30,10,44,17.40
2009,06,30,10,45,17.50
2009,06,30,10,46,17.60
2009,06,30,10,47,17.60
2009,06,30,10,48,17.60
2009,06,30,10,49,17.60
2009,06,30,10,50,17.60
2009,06,30,10,51,17.60
2009,06,30,10,52,17.50
2009,06,30,10,53,17.40
2009,06,30,10,54,17.40
2009,06,30,10,55,17.30
2009,06,30,10,56,17.10
2009,06,30,10,57,17.10
2009,06,30,10,58,17.10
2009,06,30,10,59,17.10
2009,06,30,11,00,17.20
2009,06,30,11,01,17.30
2009,06,30,11,02,17.50
2009,06,30,11,03,17.70
2009,06,30,11,04,17.90
2009,06,30,11,05,18.00
2009,06,30,11,06,18.10
2009,06,30,11,07,18.20
2009,06,30,11,08,18.30
2009,06,30,11,09,18.30
2009,06,30,11,10,18.30
2009,06,30,11,11,18.30
2009,06,30,11,12,18.40
2009,06,30,11,13,18.50
2009,06,30,11,14,18.60
2009,06,30,11,15,18.70
2009,06,30,11,16,18.70
2009,06,30,11,17,18.60
2009,06,30,11,18,18.40
2009,06,30,11,19,18.30
2009,06,30,11,20,18.30
2009,06,30,11,21,18.20
2009,06,30,11,22,18.10
2009,06,30,11,23,18.10
2009,06,30,11,24,18.30
2009,06,30,11,25,18.50
2009,06,30,11,26,18.60
2009,06,30,11,27,18.70
2009,06,30,11,28,18.70
2009,06,30,11,29,18.60
2009,06,30,11,30,18.50
2009,06,30,11,31,18.50
2009,06,30,11,32,18.50
2009,06,30,11,33,18.60
2009,06,30,11,34,18.70
2009,06,30,11,35,18.80
2009,06,30,11,36,18.90
2009,06,30,11,37,19.10
2009,06,30,11,38,19.20
2009,06,30,11,39,19.20
2009,06,30,11,40,19.10
2009,06,30,11,41,18.80
2009,06,30,11,42,18.70
2009,06,30,11,43,18.50
2009,06,30,11,44,18.20
2009,06,30,11,45,18.00
2009,06,30,11,46,17.90
2009,06,30,11,47,17.90
2009,06,30,11,48,17.90
2009,06,30,11,49,17.80
2009,06,30,11,50,17.90
2009,06,30,11,51,18.00
2009,06,30,11,52,18.00
2009,06,30,11,53,17.80
2009,06,30,11,54,17.60
2009,06,30,11,55,17.40
2009,06,30,11,56,17.20
2009,06,30,11,57,17.10
2009,06,30,11,58,17.00
2009,06,30,11,59,17.00
2009,06,30,12,00,17.00
2009,06,30,12,01,17.10
2009,06,30,12,02,17.10
2009,06,30,12,03,17.10
2009,06,30,12,04,17.10
2009,06,30,12,05,17.20
2009,06,30,12,06,17.30
2009,06,30,12,07,17.40
2009,06,30,12,08,17.50
2009,06,30,12,09,17.70
2009,06,30,12,10,17.80
2009,06,30,12,11,17.90
2009,06,30,12,12,18.00
2009,06,30,12,13,18.10
2009,06,30,12,14,18.20
2009,06,30,12,15,18.20
2009,06,30,12,16,18.20
2009,06,30,12,17,18.20
2009,06,30,12,18,18.10
2009,06,30,12,19,18.10
2009,06,30,12,20,18.00
2009,06,30,12,21,17.80
2009,06,30,12,22,17.70
2009,06,30,12,23,17.60
2009,06,30,12,24,17.50
2009,06,30,12,25,17.50
2009,06,30,12,26,17.40
2009,06,30,12,27,17.40
2009,06,30,12,28,17.20
2009,06,30,12,29,17.20
2009,06,30,12,30,17.10
2009,06,30,12,31,17.10
2009,06,30,12,32,17.10
2009,06,30,12,33,17.10
2009,06,30,12,34,17.10
2009,06,30,12,35,17.20
2009,06,30,12,36,17.20
2009,06,30,12,37,17.30
2009,06,30,12,38,17.60
2009,06,30,12,39,17.80
2009,06,30,12,40,17.90
2009,06,30,12,41,18.10
2009,06,30,12,42,18.30
2009,06,30,12,43,18.30
2009,06,30,12,44,18.20
2009,06,30,12,45,18.20
2009,06,30,12,46,18.20
2009,06,30,12,47,18.30
2009,06,30,12,48,18.50
2009,06,30,12,49,18.50
2009,06,30,12,50,18.40
2009,06,30,12,51,18.30
2009,06,30,12,52,18.20
2009,06,30,12,53,18.20
2009,06,30,12,54,18.10
2009,06,30,12,55,18.00
2009,06,30,12,56,17.90
2009,06,30,12,57,17.80
